Tracking 19485 objects as of 21-Jan-2019
HD Live streaming from Space Station
objects crossing your sky now

COSMOS 1876

Track COSMOS 1876 now!
10-day predictions
COSMOS 1876 is classified as:


NORAD ID: 18335
Int'l Code: 1987-074B
Perigee: 1,414.8 km
Apogee: 1,422.8 km
Inclination: 82.6 °
Period: 114.0 minutes
Semi major axis: 7789 km
RCS: 1.1447 m2 (large)
Launch date: September 7, 1987
Source: Commonwealth of Independent States (former USSR) (CIS)
Launch site: PLESETSK MISSILE AND SPACE COMPLEX (PKMTR)
aabbcc
Your satellite tracking list
Your tracking list is empty




NASA's NSSDC Master Catalog

Two Line Element Set (TLE):
1 18335U 87074B   19020.72813543 +.00000051 +00000-0 +22295-3 0  9990
2 18335 082.5714 251.1310 0005153 124.0806 296.5212 12.62736915445751
Source of the keplerian elements: AFSPC